Time,TemperatureF,DewpointF,PressureIn,WindDirection,WindDirectionDegrees,WindSpeedMPH,WindSpeedGustMPH,Humidity,HourlyPrecipIn,Conditions,Clouds,dailyrainin,SoftwareType,DateUTC
2013-05-27 00:01:00,65.8,33.6,29.47,ENE,68,0.0,0.0,30,0.00,,---,0.00,VWS V14.01,2013-05-27 05:01:00,
2013-05-27 00:06:00,65.7,33.4,29.47,ENE,68,0.0,0.0,30,0.00,,---,0.00,VWS V14.01,2013-05-27 05:06:00,
2013-05-27 00:11:00,65.7,33.4,29.47,ENE,68,0.0,0.0,30,0.00,,---,0.00,VWS V14.01,2013-05-27 05:11:00,
2013-05-27 00:15:00,65.7,33.4,29.47,ENE,68,0.0,0.0,30,0.00,,---,0.00,VWS V14.01,2013-05-27 05:15:00,
2013-05-27 00:20:00,66.0,33.7,29.44,ENE,68,0.0,0.0,30,0.00,,---,0.00,VWS V14.01,2013-05-27 05:20:00,
2013-05-27 00:25:00,66.2,33.0,29.44,ENE,68,0.0,0.0,29,0.00,,---,0.00,VWS V14.01,2013-05-27 05:25:00,
2013-05-27 00:30:00,66.4,33.2,29.44,ENE,68,0.0,0.0,29,0.00,,---,0.00,VWS V14.01,2013-05-27 05:30:00,
2013-05-27 00:35:00,66.4,33.2,29.44,ENE,68,0.0,0.0,29,0.00,,---,0.00,VWS V14.01,2013-05-27 05:35:00,
2013-05-27 00:40:00,66.4,33.2,29.44,ENE,68,0.0,0.0,29,0.00,,---,0.00,VWS V14.01,2013-05-27 05:40:00,
2013-05-27 00:45:00,66.4,33.2,29.44,ENE,68,0.0,0.0,29,0.00,,---,0.00,VWS V14.01,2013-05-27 05:45:00,
2013-05-27 00:50:00,66.4,33.2,29.44,ENE,68,0.0,0.0,29,0.00,,---,0.00,VWS V14.01,2013-05-27 05:50:00,
2013-05-27 00:55:00,66.4,34.0,29.44,ENE,68,0.0,0.0,30,0.00,,---,0.00,VWS V14.01,2013-05-27 05:55:00,
2013-05-27 01:00:00,66.2,33.9,29.44,ENE,68,0.0,0.0,30,0.00,,---,0.00,VWS V14.01,2013-05-27 06:00:00,
2013-05-27 01:05:00,66.2,33.9,29.47,ENE,68,0.0,0.0,30,0.00,,---,0.00,VWS V14.01,2013-05-27 06:05:00,
2013-05-27 01:10:00,66.0,34.5,29.47,ENE,68,0.0,0.0,31,0.00,,---,0.00,VWS V14.01,2013-05-27 06:10:00,
2013-05-27 01:15:00,65.8,34.4,29.47,ENE,68,0.0,0.0,31,0.00,,---,0.00,VWS V14.01,2013-05-27 06:15:00,
2013-05-27 01:20:00,65.8,34.4,29.44,ENE,68,0.0,0.0,31,0.00,,---,0.00,VWS V14.01,2013-05-27 06:20:00,
2013-05-27 01:25:00,65.8,34.4,29.44,ENE,68,0.0,0.0,31,0.00,,---,0.00,VWS V14.01,2013-05-27 06:25:00,
2013-05-27 01:30:00,65.7,35.0,29.44,ENE,68,0.0,0.0,32,0.00,,---,0.00,VWS V14.01,2013-05-27 06:30:00,
2013-05-27 01:35:00,65.5,34.9,29.44,ENE,68,0.0,0.0,32,0.00,,---,0.00,VWS V14.01,2013-05-27 06:35:00,
2013-05-27 01:40:00,65.5,34.9,29.44,ENE,68,0.0,0.0,32,0.00,,---,0.00,VWS V14.01,2013-05-27 06:40:00,
2013-05-27 01:45:00,65.3,34.7,29.44,ENE,68,0.0,0.0,32,0.00,,---,0.00,VWS V14.01,2013-05-27 06:45:00,
2013-05-27 01:50:00,65.1,34.6,29.44,ENE,68,0.0,0.0,32,0.00,,---,0.00,VWS V14.01,2013-05-27 06:50:00,
2013-05-27 01:55:00,64.9,34.4,29.44,ENE,68,0.0,0.0,32,0.00,,---,0.00,VWS V14.01,2013-05-27 06:55:00,
2013-05-27 02:00:00,64.6,34.8,29.44,ENE,68,0.0,0.0,33,0.00,,---,0.00,VWS V14.01,2013-05-27 07:00:00,
2013-05-27 02:05:00,64.4,34.7,29.44,ENE,68,0.0,0.0,33,0.00,,---,0.00,VWS V14.01,2013-05-27 07:05:00,
2013-05-27 02:10:00,64.4,34.7,29.44,ENE,68,0.0,0.0,33,0.00,,---,0.00,VWS V14.01,2013-05-27 07:10:00,
2013-05-27 02:15:00,64.0,35.1,29.44,ENE,68,0.0,0.0,34,0.00,,---,0.00,VWS V14.01,2013-05-27 07:15:00,
2013-05-27 02:20:00,64.0,35.1,29.44,ENE,68,0.0,0.0,34,0.00,,---,0.00,VWS V14.01,2013-05-27 07:20:00,
2013-05-27 02:25:00,63.9,35.0,29.44,ENE,68,0.0,0.0,34,0.00,,---,0.00,VWS V14.01,2013-05-27 07:25:00,
2013-05-27 02:30:00,63.5,34.7,29.44,ENE,68,0.0,0.0,34,0.00,,---,0.00,VWS V14.01,2013-05-27 07:30:00,
2013-05-27 02:35:00,63.3,34.5,29.44,ENE,68,0.0,0.0,34,0.00,,---,0.00,VWS V14.01,2013-05-27 07:35:00,
2013-05-27 02:40:00,63.3,34.5,29.44,ENE,68,0.0,0.0,34,0.00,,---,0.00,VWS V14.01,2013-05-27 07:40:00,
2013-05-27 02:45:00,63.1,35.1,29.44,ENE,68,0.0,0.0,35,0.00,,---,0.00,VWS V14.01,2013-05-27 07:45:00,
2013-05-27 02:50:00,63.1,35.1,29.44,ENE,68,0.0,0.0,35,0.00,,---,0.00,VWS V14.01,2013-05-27 07:50:00,
2013-05-27 02:55:00,62.6,35.3,29.47,ENE,68,0.0,0.0,36,0.00,,---,0.00,VWS V14.01,2013-05-27 07:55:00,
2013-05-27 03:00:00,62.4,35.1,29.47,ENE,68,0.0,0.0,36,0.00,,---,0.00,VWS V14.01,2013-05-27 08:00:00,
2013-05-27 03:05:00,62.2,35.0,29.44,ENE,68,0.0,0.0,36,0.00,,---,0.00,VWS V14.01,2013-05-27 08:05:00,
2013-05-27 03:10:00,62.2,35.0,29.44,ENE,68,0.0,0.0,36,0.00,,---,0.00,VWS V14.01,2013-05-27 08:10:00,
2013-05-27 03:15:00,61.9,35.3,29.44,ENE,68,0.0,0.0,37,0.00,,---,0.00,VWS V14.01,2013-05-27 08:15:00,
2013-05-27 03:20:00,61.9,35.3,29.44,ENE,68,0.0,0.0,37,0.00,,---,0.00,VWS V14.01,2013-05-27 08:20:00,
2013-05-27 03:25:00,61.7,35.2,29.44,ENE,68,0.0,0.0,37,0.00,,---,0.00,VWS V14.01,2013-05-27 08:25:00,
2013-05-27 03:30:00,61.7,35.2,29.44,ENE,68,0.0,0.0,37,0.00,,---,0.00,VWS V14.01,2013-05-27 08:30:00,
2013-05-27 03:35:00,61.7,35.9,29.47,ENE,68,0.0,0.0,38,0.00,,---,0.00,VWS V14.01,2013-05-27 08:35:00,
2013-05-27 03:40:00,61.7,35.9,29.47,ENE,68,0.0,0.0,38,0.00,,---,0.00,VWS V14.01,2013-05-27 08:40:00,
2013-05-27 03:45:00,61.9,36.7,29.47,ENE,68,0.0,0.0,39,0.00,,---,0.00,VWS V14.01,2013-05-27 08:45:00,
2013-05-27 03:50:00,61.9,36.7,29.44,ENE,68,0.0,0.0,39,0.00,,---,0.00,VWS V14.01,2013-05-27 08:50:00,
2013-05-27 03:55:00,61.9,36.7,29.44,ENE,68,0.0,0.0,39,0.00,,---,0.00,VWS V14.01,2013-05-27 08:55:00,
2013-05-27 04:00:00,61.9,36.7,29.44,ENE,68,0.0,0.0,39,0.00,,---,0.00,VWS V14.01,2013-05-27 09:00:00,
2013-05-27 04:05:00,62.1,36.8,29.44,ENE,68,0.0,0.0,39,0.00,,---,0.00,VWS V14.01,2013-05-27 09:05:00,
2013-05-27 04:10:00,62.1,37.5,29.44,ENE,68,0.0,0.0,40,0.00,,---,0.00,VWS V14.01,2013-05-27 09:10:00,
2013-05-27 04:15:00,62.2,37.6,29.44,ENE,68,0.0,0.0,40,0.00,,---,0.00,VWS V14.01,2013-05-27 09:15:00,
2013-05-27 04:20:00,62.2,37.6,29.44,ENE,68,0.0,0.0,40,0.00,,---,0.00,VWS V14.01,2013-05-27 09:20:00,
2013-05-27 04:25:00,62.4,37.8,29.44,ENE,68,0.0,0.0,40,0.00,,---,0.00,VWS V14.01,2013-05-27 09:25:00,
2013-05-27 04:30:00,62.4,37.8,29.44,ENE,68,0.0,0.0,40,0.00,,---,0.00,VWS V14.01,2013-05-27 09:30:00,
2013-05-27 04:35:00,62.6,38.0,29.47,ENE,68,0.0,0.0,40,0.00,,---,0.00,VWS V14.01,2013-05-27 09:35:00,
2013-05-27 04:40:00,62.8,38.1,29.47,ENE,68,0.0,0.0,40,0.00,,---,0.00,VWS V14.01,2013-05-27 09:40:00,
2013-05-27 04:45:00,63.0,38.3,29.47,ENE,68,0.0,0.0,40,0.00,,---,0.00,VWS V14.01,2013-05-27 09:45:00,
2013-05-27 04:50:00,63.0,38.3,29.47,ENE,68,0.0,0.0,40,0.00,,---,0.00,VWS V14.01,2013-05-27 09:50:00,
2013-05-27 04:55:00,63.1,38.5,29.47,ENE,68,0.0,0.0,40,0.00,,---,0.00,VWS V14.01,2013-05-27 09:55:00,
2013-05-27 05:00:00,63.3,39.2,29.47,ENE,68,0.0,0.0,41,0.00,,---,0.00,VWS V14.01,2013-05-27 10:00:00,
2013-05-27 05:05:00,63.5,39.4,29.44,ENE,68,0.0,0.0,41,0.00,,---,0.00,VWS V14.01,2013-05-27 10:05:00,
2013-05-27 05:10:00,63.5,38.8,29.44,ENE,68,0.0,0.0,40,0.00,,---,0.00,VWS V14.01,2013-05-27 10:10:00,
2013-05-27 05:15:00,64.0,39.2,29.44,ENE,68,0.0,0.0,40,0.00,,---,0.00,VWS V14.01,2013-05-27 10:15:00,
2013-05-27 05:20:00,64.2,38.8,29.47,ENE,68,0.0,0.0,39,0.00,,---,0.00,VWS V14.01,2013-05-27 10:20:00,
2013-05-27 05:25:00,64.4,38.3,29.47,ENE,68,0.0,0.0,38,0.00,,---,0.00,VWS V14.01,2013-05-27 10:25:00,
2013-05-27 05:30:00,64.4,38.3,29.47,ENE,68,0.0,0.0,38,0.00,,---,0.00,VWS V14.01,2013-05-27 10:30:00,
2013-05-27 05:35:00,64.4,37.6,29.47,ENE,68,0.0,0.0,37,0.00,,---,0.00,VWS V14.01,2013-05-27 10:35:00,
2013-05-27 05:40:00,64.4,37.6,29.47,ENE,68,0.0,0.0,37,0.00,,---,0.00,VWS V14.01,2013-05-27 10:40:00,
2013-05-27 05:45:00,64.2,38.1,29.47,ENE,68,0.0,0.0,38,0.00,,---,0.00,VWS V14.01,2013-05-27 10:45:00,
2013-05-27 05:50:00,64.2,38.1,29.47,ENE,68,0.0,0.0,38,0.00,,---,0.00,VWS V14.01,2013-05-27 10:50:00,
2013-05-27 05:55:00,64.4,37.6,29.47,ENE,68,0.0,0.0,37,0.00,,---,0.00,VWS V14.01,2013-05-27 10:55:00,
2013-05-27 06:00:00,64.6,37.8,29.47,ENE,68,0.0,0.0,37,0.00,,---,0.00,VWS V14.01,2013-05-27 11:00:00,
2013-05-27 06:05:00,64.8,37.9,29.50,ENE,68,0.0,0.0,37,0.00,,---,0.00,VWS V14.01,2013-05-27 11:05:00,
2013-05-27 06:10:00,64.9,38.1,29.50,ENE,68,0.0,0.0,37,0.00,,---,0.00,VWS V14.01,2013-05-27 11:10:00,
2013-05-27 06:15:00,65.1,37.5,29.50,ENE,68,0.0,0.0,36,0.00,,---,0.00,VWS V14.01,2013-05-27 11:15:00,
2013-05-27 06:20:00,65.5,37.8,29.50,ENE,68,0.0,0.0,36,0.00,,---,0.00,VWS V14.01,2013-05-27 11:20:00,
2013-05-27 06:25:00,65.7,38.0,29.50,ENE,68,0.0,0.0,36,0.00,,---,0.00,VWS V14.01,2013-05-27 11:25:00,
2013-05-27 06:30:00,65.8,38.2,29.50,ENE,68,0.0,0.0,36,0.00,,---,0.00,VWS V14.01,2013-05-27 11:30:00,
2013-05-27 06:35:00,66.0,38.3,29.50,ENE,68,0.0,0.0,36,0.00,,---,0.00,VWS V14.01,2013-05-27 11:35:00,
2013-05-27 06:40:00,66.2,38.5,29.50,ENE,68,0.0,0.0,36,0.00,,---,0.00,VWS V14.01,2013-05-27 11:40:00,
2013-05-27 06:45:00,66.6,38.1,29.50,ENE,68,2.7,2.7,35,0.00,,---,0.00,VWS V14.01,2013-05-27 11:45:00,
2013-05-27 06:50:00,66.7,39.0,29.50,ENE,68,1.3,1.3,36,0.00,,---,0.00,VWS V14.01,2013-05-27 11:50:00,
2013-05-27 06:55:00,66.9,39.1,29.50,ENE,68,0.0,0.0,36,0.00,,---,0.00,VWS V14.01,2013-05-27 11:55:00,
2013-05-27 07:00:00,67.1,39.3,29.50,ENE,68,0.0,0.0,36,0.00,,---,0.00,VWS V14.01,2013-05-27 12:00:00,
2013-05-27 07:04:00,67.3,38.7,29.47,ENE,68,0.0,0.0,35,0.00,,---,0.00,VWS V14.01,2013-05-27 12:04:00,
2013-05-27 07:09:00,67.5,38.9,29.47,ENE,68,0.0,0.0,35,0.00,,---,0.00,VWS V14.01,2013-05-27 12:09:00,
2013-05-27 07:14:00,67.5,38.9,29.47,ENE,68,0.0,0.0,35,0.00,,---,0.00,VWS V14.01,2013-05-27 12:14:00,
2013-05-27 07:19:00,67.5,38.9,29.50,ENE,68,0.0,0.0,35,0.00,,---,0.00,VWS V14.01,2013-05-27 12:19:00,
2013-05-27 07:24:00,67.5,38.9,29.50,ENE,68,0.0,0.0,35,0.00,,---,0.00,VWS V14.01,2013-05-27 12:24:00,
2013-05-27 07:29:00,67.5,38.9,29.50,ENE,68,0.0,0.0,35,0.00,,---,0.00,VWS V14.01,2013-05-27 12:29:00,
2013-05-27 07:34:00,67.6,39.0,29.47,ENE,68,0.0,0.0,35,0.00,,---,0.00,VWS V14.01,2013-05-27 12:34:00,
2013-05-27 07:39:00,67.8,39.2,29.47,ENE,68,0.0,0.0,35,0.00,,---,0.00,VWS V14.01,2013-05-27 12:39:00,
2013-05-27 07:44:00,68.0,39.3,29.47,ENE,68,0.0,0.0,35,0.00,,---,0.00,VWS V14.01,2013-05-27 12:44:00,
2013-05-27 07:49:00,68.4,39.7,29.50,ENE,68,0.0,0.0,35,0.00,,---,0.00,VWS V14.01,2013-05-27 12:49:00,
2013-05-27 07:54:00,68.7,40.0,29.50,ENE,68,0.0,0.0,35,0.00,,---,0.00,VWS V14.01,2013-05-27 12:54:00,
2013-05-27 07:59:00,68.9,40.2,29.50,ENE,68,0.0,0.0,35,0.00,,---,0.00,VWS V14.01,2013-05-27 12:59:00,
2013-05-27 08:04:00,69.3,39.7,29.50,ENE,68,0.0,0.0,34,0.00,,---,0.00,VWS V14.01,2013-05-27 13:04:00,
2013-05-27 08:09:00,69.4,39.9,29.50,ENE,68,0.0,0.0,34,0.00,,---,0.00,VWS V14.01,2013-05-27 13:09:00,
2013-05-27 08:14:00,70.0,40.3,29.50,ENE,68,0.0,0.0,34,0.00,,---,0.00,VWS V14.01,2013-05-27 13:14:00,
2013-05-27 08:19:00,70.2,40.5,29.50,ENE,68,0.0,0.0,34,0.00,,---,0.00,VWS V14.01,2013-05-27 13:19:00,
2013-05-27 08:24:00,70.3,40.7,29.50,ENE,68,0.0,0.0,34,0.00,,---,0.00,VWS V14.01,2013-05-27 13:24:00,
2013-05-27 08:29:00,70.9,41.1,29.50,ENE,68,0.0,0.0,34,0.00,,---,0.00,VWS V14.01,2013-05-27 13:29:00,
2013-05-27 08:34:00,71.8,41.2,29.50,ENE,68,0.0,0.0,33,0.00,,---,0.00,VWS V14.01,2013-05-27 13:34:00,
2013-05-27 08:39:00,72.3,41.6,29.50,ENE,68,0.0,0.0,33,0.00,,---,0.00,VWS V14.01,2013-05-27 13:39:00,
2013-05-27 08:44:00,73.0,42.3,29.50,ENE,68,0.0,0.0,33,0.00,,---,0.00,VWS V14.01,2013-05-27 13:44:00,
2013-05-27 08:49:00,73.2,41.6,29.50,ENE,68,0.0,1.3,32,0.00,,---,0.00,VWS V14.01,2013-05-27 13:49:00,
2013-05-27 08:54:00,73.6,41.9,29.50,ENE,68,0.0,0.0,32,0.00,,---,0.00,VWS V14.01,2013-05-27 13:54:00,
2013-05-27 08:59:00,73.9,41.4,29.50,ENE,68,0.0,2.0,31,0.00,,---,0.00,VWS V14.01,2013-05-27 13:59:00,
2013-05-27 09:04:00,74.3,42.6,29.50,ENE,68,0.0,2.2,32,0.00,,---,0.00,VWS V14.01,2013-05-27 14:04:00,
2013-05-27 09:09:00,75.0,42.4,29.50,ENE,68,0.0,0.0,31,0.00,,---,0.00,VWS V14.01,2013-05-27 14:09:00,
2013-05-27 09:14:00,75.4,41.8,29.50,ENE,68,1.1,2.7,30,0.00,,---,0.00,VWS V14.01,2013-05-27 14:14:00,
2013-05-27 09:19:00,75.7,41.3,29.50,ENE,68,0.0,0.0,29,0.00,,---,0.00,VWS V14.01,2013-05-27 14:19:00,
2013-05-27 09:24:00,76.1,41.6,29.50,ENE,68,0.0,2.2,29,0.00,,---,0.00,VWS V14.01,2013-05-27 14:24:00,
2013-05-27 09:29:00,77.2,42.5,29.50,ENE,68,0.0,0.0,29,0.00,,---,0.00,VWS V14.01,2013-05-27 14:29:00,
2013-05-27 09:34:00,78.1,42.4,29.50,ENE,68,2.7,2.7,28,0.00,,---,0.00,VWS V14.01,2013-05-27 14:34:00,
2013-05-27 09:39:00,77.9,39.3,29.50,ENE,68,2.0,2.0,25,0.00,,---,0.00,VWS V14.01,2013-05-27 14:39:00,
2013-05-27 09:44:00,77.4,39.8,29.50,ENE,68,0.0,0.0,26,0.00,,---,0.00,VWS V14.01,2013-05-27 14:44:00,
2013-05-27 09:49:00,77.5,40.0,29.47,ENE,68,0.0,0.0,26,0.00,,---,0.00,VWS V14.01,2013-05-27 14:49:00,
2013-05-27 09:54:00,78.4,39.7,29.47,ENE,68,0.0,0.0,25,0.00,,---,0.00,VWS V14.01,2013-05-27 14:54:00,
2013-05-27 09:59:00,79.9,39.9,29.47,ENE,68,0.0,3.8,24,0.00,,---,0.00,VWS V14.01,2013-05-27 14:59:00,
2013-05-27 10:04:00,81.7,41.4,29.47,ENE,68,1.1,1.1,24,0.00,,---,0.00,VWS V14.01,2013-05-27 15:04:00,
2013-05-27 10:09:00,82.9,40.2,29.47,ENE,68,1.3,1.3,22,0.00,,---,0.00,VWS V14.01,2013-05-27 15:09:00,
2013-05-27 10:14:00,83.8,39.8,29.47,ENE,68,0.0,2.2,21,0.00,,---,0.00,VWS V14.01,2013-05-27 15:14:00,
2013-05-27 10:19:00,84.7,39.3,29.47,ENE,68,1.1,1.1,20,0.00,,---,0.00,VWS V14.01,2013-05-27 15:19:00,
2013-05-27 10:24:00,85.5,39.9,29.47,ENE,68,0.0,2.7,20,0.00,,---,0.00,VWS V14.01,2013-05-27 15:24:00,
2013-05-27 10:29:00,86.7,40.9,29.47,ENE,68,0.0,0.0,20,0.00,,---,0.00,VWS V14.01,2013-05-27 15:29:00,
2013-05-27 10:34:00,86.2,39.1,29.47,ENE,68,3.1,3.6,19,0.00,,---,0.00,VWS V14.01,2013-05-27 15:34:00,
2013-05-27 10:39:00,86.0,39.0,29.47,ENE,68,2.9,3.6,19,0.00,,---,0.00,VWS V14.01,2013-05-27 15:39:00,
2013-05-27 10:44:00,86.5,39.4,29.47,ENE,68,5.6,5.6,19,0.00,,---,0.00,VWS V14.01,2013-05-27 15:44:00,
2013-05-27 10:49:00,86.9,39.7,29.47,ENE,68,3.8,4.3,19,0.00,,---,0.00,VWS V14.01,2013-05-27 15:49:00,
2013-05-27 10:54:00,87.4,40.2,29.47,ENE,68,1.3,2.0,19,0.00,,---,0.00,VWS V14.01,2013-05-27 15:54:00,
2013-05-27 10:59:00,87.8,39.1,29.47,ENE,68,0.0,2.2,18,0.00,,---,0.00,VWS V14.01,2013-05-27 15:59:00,
2013-05-27 11:04:00,88.7,39.8,29.47,ENE,68,1.3,1.3,18,0.00,,---,0.00,VWS V14.01,2013-05-27 16:04:00,
2013-05-27 11:09:00,88.7,39.8,29.47,ENE,68,0.0,1.1,18,0.00,,---,0.00,VWS V14.01,2013-05-27 16:09:00,
2013-05-27 11:14:00,88.9,39.9,29.47,ENE,68,2.0,2.2,18,0.00,,---,0.00,VWS V14.01,2013-05-27 16:14:00,
2013-05-27 11:19:00,88.2,39.4,29.47,ENE,68,3.6,3.6,18,0.00,,---,0.00,VWS V14.01,2013-05-27 16:19:00,
2013-05-27 11:24:00,89.4,40.4,29.47,ENE,68,3.1,3.1,18,0.00,,---,0.00,VWS V14.01,2013-05-27 16:24:00,
2013-05-27 11:29:00,89.8,40.7,29.47,ENE,68,2.0,2.9,18,0.00,,---,0.00,VWS V14.01,2013-05-27 16:29:00,
2013-05-27 11:34:00,90.0,39.3,29.47,ENE,68,3.1,3.1,17,0.00,,---,0.00,VWS V14.01,2013-05-27 16:34:00,
2013-05-27 11:39:00,89.4,40.4,29.47,ENE,68,2.9,2.9,18,0.00,,---,0.00,VWS V14.01,2013-05-27 16:39:00,
2013-05-27 11:44:00,90.1,39.5,29.47,ENE,68,2.0,2.5,17,0.00,,---,0.00,VWS V14.01,2013-05-27 16:44:00,
2013-05-27 11:49:00,89.1,40.1,29.47,ENE,68,3.8,3.8,18,0.00,,---,0.00,VWS V14.01,2013-05-27 16:49:00,
2013-05-27 11:54:00,89.2,40.2,29.44,ENE,68,2.7,4.7,18,0.00,,---,0.00,VWS V14.01,2013-05-27 16:54:00,
2013-05-27 11:59:00,88.3,39.5,29.44,ENE,68,2.9,3.1,18,0.00,,---,0.00,VWS V14.01,2013-05-27 16:59:00,
2013-05-27 12:04:00,89.2,40.2,29.44,ENE,68,3.6,3.6,18,0.00,,---,0.00,VWS V14.01,2013-05-27 17:04:00,
2013-05-27 12:09:00,90.0,39.3,29.47,ENE,68,0.9,0.9,17,0.00,,---,0.00,VWS V14.01,2013-05-27 17:09:00,
2013-05-27 12:14:00,90.5,39.8,29.47,ENE,68,2.5,2.9,17,0.00,,---,0.00,VWS V14.01,2013-05-27 17:14:00,
2013-05-27 12:19:00,90.0,39.3,29.47,ENE,68,1.6,2.2,17,0.00,,---,0.00,VWS V14.01,2013-05-27 17:19:00,
2013-05-27 12:24:00,90.3,39.6,29.44,ENE,68,0.0,0.0,17,0.00,,---,0.00,VWS V14.01,2013-05-27 17:24:00,
2013-05-27 12:29:00,91.4,40.5,29.44,ENE,68,2.7,2.7,17,0.00,,---,0.00,VWS V14.01,2013-05-27 17:29:00,
2013-05-27 12:34:00,91.8,40.8,29.44,ENE,68,1.6,1.6,17,0.00,,---,0.00,VWS V14.01,2013-05-27 17:34:00,
2013-05-27 12:39:00,90.7,36.7,29.44,ENE,68,2.2,4.3,15,0.00,,---,0.00,VWS V14.01,2013-05-27 17:39:00,
2013-05-27 12:44:00,92.1,41.1,29.44,ENE,68,0.0,0.0,17,0.00,,---,0.00,VWS V14.01,2013-05-27 17:44:00,
2013-05-27 12:48:00,92.5,41.4,29.44,ENE,68,5.4,5.4,17,0.00,,---,0.00,VWS V14.01,2013-05-27 17:48:00,
2013-05-27 12:53:00,91.4,35.6,29.44,ENE,68,4.0,4.0,14,0.00,,---,0.00,VWS V14.01,2013-05-27 17:53:00,
2013-05-27 12:58:00,92.3,36.3,29.44,ENE,68,0.0,0.0,14,0.00,,---,0.00,VWS V14.01,2013-05-27 17:58:00,
2013-05-27 13:03:00,91.4,40.5,29.44,ENE,68,4.3,4.3,17,0.00,,---,0.00,VWS V14.01,2013-05-27 18:03:00,
2013-05-27 13:08:00,91.0,40.2,29.41,ENE,68,4.0,4.0,17,0.00,,---,0.00,VWS V14.01,2013-05-27 18:08:00,
2013-05-27 13:13:00,90.3,36.5,29.41,ENE,68,3.8,6.3,15,0.00,,---,0.00,VWS V14.01,2013-05-27 18:13:00,
2013-05-27 13:18:00,90.9,36.9,29.41,ENE,68,3.1,3.1,15,0.00,,---,0.00,VWS V14.01,2013-05-27 18:18:00,
2013-05-27 13:23:00,91.8,35.8,29.44,ENE,68,2.5,2.5,14,0.00,,---,0.00,VWS V14.01,2013-05-27 18:23:00,
2013-05-27 13:28:00,91.2,37.2,29.44,ENE,68,8.1,8.1,15,0.00,,---,0.00,VWS V14.01,2013-05-27 18:28:00,
2013-05-27 13:33:00,90.1,36.3,29.44,ENE,68,3.8,3.8,15,0.00,,---,0.00,VWS V14.01,2013-05-27 18:33:00,
2013-05-27 13:38:00,90.1,36.3,29.44,ENE,68,2.0,4.3,15,0.00,,---,0.00,VWS V14.01,2013-05-27 18:38:00,
2013-05-27 13:43:00,90.1,36.3,29.44,ENE,68,8.1,8.1,15,0.00,,---,0.00,VWS V14.01,2013-05-27 18:43:00,
2013-05-27 13:48:00,89.2,35.6,29.44,ENE,68,5.4,6.3,15,0.00,,---,0.00,VWS V14.01,2013-05-27 18:48:00,
2013-05-27 13:53:00,90.5,36.6,29.44,ENE,68,1.3,5.4,15,0.00,,---,0.00,VWS V14.01,2013-05-27 18:53:00,
2013-05-27 13:58:00,90.5,36.6,29.44,ENE,68,3.4,6.5,15,0.00,,---,0.00,VWS V14.01,2013-05-27 18:58:00,
2013-05-27 14:03:00,88.3,34.9,29.44,ENE,68,4.9,4.9,15,0.00,,---,0.00,VWS V14.01,2013-05-27 19:03:00,
2013-05-27 14:08:00,88.7,35.2,29.44,ENE,68,3.6,3.6,15,0.00,,---,0.00,VWS V14.01,2013-05-27 19:08:00,
2013-05-27 14:13:00,88.5,35.0,29.44,ENE,68,2.9,4.7,15,0.00,,---,0.00,VWS V14.01,2013-05-27 19:13:00,
2013-05-27 14:18:00,87.6,35.9,29.44,ENE,68,3.8,4.9,16,0.00,,---,0.00,VWS V14.01,2013-05-27 19:18:00,
2013-05-27 14:23:00,87.1,35.5,29.44,ENE,68,3.4,5.4,16,0.00,,---,0.00,VWS V14.01,2013-05-27 19:23:00,
2013-05-27 14:28:00,88.2,34.7,29.44,ENE,68,2.5,4.3,15,0.00,,---,0.00,VWS V14.01,2013-05-27 19:28:00,
2013-05-27 14:33:00,87.4,35.8,29.44,ENE,68,0.0,0.0,16,0.00,,---,0.00,VWS V14.01,2013-05-27 19:33:00,
2013-05-27 14:38:00,87.4,35.8,29.41,ENE,68,3.6,3.8,16,0.00,,---,0.00,VWS V14.01,2013-05-27 19:38:00,
2013-05-27 14:43:00,87.6,35.9,29.41,ENE,68,2.9,3.8,16,0.00,,---,0.00,VWS V14.01,2013-05-27 19:43:00,
2013-05-27 14:48:00,88.0,34.6,29.41,ENE,68,2.5,4.3,15,0.00,,---,0.00,VWS V14.01,2013-05-27 19:48:00,
2013-05-27 14:53:00,88.2,34.7,29.44,ENE,68,2.9,3.8,15,0.00,,---,0.00,VWS V14.01,2013-05-27 19:53:00,
2013-05-27 14:58:00,89.2,35.6,29.44,ENE,68,1.1,3.1,15,0.00,,---,0.00,VWS V14.01,2013-05-27 19:58:00,
2013-05-27 15:03:00,90.5,36.6,29.44,ENE,68,2.5,4.7,15,0.00,,---,0.00,VWS V14.01,2013-05-27 20:03:00,
2013-05-27 15:08:00,90.3,36.5,29.41,ENE,68,3.6,3.6,15,0.00,,---,0.00,VWS V14.01,2013-05-27 20:08:00,
2013-05-27 15:13:00,88.9,35.3,29.41,ENE,68,5.6,5.6,15,0.00,,---,0.00,VWS V14.01,2013-05-27 20:13:00,
2013-05-27 15:18:00,90.1,36.3,29.41,ENE,68,2.9,5.4,15,0.00,,---,0.00,VWS V14.01,2013-05-27 20:18:00,
2013-05-27 15:23:00,90.9,36.9,29.41,ENE,68,4.3,5.8,15,0.00,,---,0.00,VWS V14.01,2013-05-27 20:23:00,
2013-05-27 15:28:00,88.3,34.9,29.41,ENE,68,5.8,5.8,15,0.00,,---,0.00,VWS V14.01,2013-05-27 20:28:00,
2013-05-27 15:33:00,87.4,35.8,29.41,ENE,68,6.9,6.9,16,0.00,,---,0.00,VWS V14.01,2013-05-27 20:33:00,
2013-05-27 15:38:00,86.7,35.2,29.41,ENE,68,6.5,6.5,16,0.00,,---,0.00,VWS V14.01,2013-05-27 20:38:00,
2013-05-27 15:43:00,85.6,34.3,29.41,ENE,68,3.4,7.6,16,0.00,,---,0.00,VWS V14.01,2013-05-27 20:43:00,
2013-05-27 15:48:00,87.3,35.6,29.41,ENE,68,2.5,3.6,16,0.00,,---,0.00,VWS V14.01,2013-05-27 20:48:00,
2013-05-27 15:53:00,88.7,35.2,29.41,ENE,68,3.8,3.8,15,0.00,,---,0.00,VWS V14.01,2013-05-27 20:53:00,
2013-05-27 15:58:00,88.3,34.9,29.41,ENE,68,0.0,0.0,15,0.00,,---,0.00,VWS V14.01,2013-05-27 20:58:00,
2013-05-27 16:03:00,86.9,35.3,29.41,ENE,68,3.4,5.4,16,0.00,,---,0.00,VWS V14.01,2013-05-27 21:03:00,
2013-05-27 16:08:00,85.5,34.2,29.41,ENE,68,4.3,4.3,16,0.00,,---,0.00,VWS V14.01,2013-05-27 21:08:00,
2013-05-27 16:13:00,86.5,35.1,29.41,ENE,68,5.4,5.6,16,0.00,,---,0.00,VWS V14.01,2013-05-27 21:13:00,
2013-05-27 16:18:00,87.3,35.6,29.41,ENE,68,2.9,3.1,16,0.00,,---,0.00,VWS V14.01,2013-05-27 21:18:00,
2013-05-27 16:23:00,87.4,35.8,29.41,ENE,68,4.3,4.3,16,0.00,,---,0.00,VWS V14.01,2013-05-27 21:23:00,
2013-05-27 16:28:00,85.8,34.5,29.41,ENE,68,2.9,3.1,16,0.00,,---,0.00,VWS V14.01,2013-05-27 21:28:00,
2013-05-27 16:33:00,85.6,34.3,29.41,ENE,68,2.2,2.2,16,0.00,,---,0.00,VWS V14.01,2013-05-27 21:33:00,
2013-05-27 16:38:00,86.0,37.6,29.41,ENE,68,2.2,2.2,18,0.00,,---,0.00,VWS V14.01,2013-05-27 21:38:00,
2013-05-27 16:43:00,85.8,37.5,29.41,ENE,68,2.9,2.9,18,0.00,,---,0.00,VWS V14.01,2013-05-27 21:43:00,
2013-05-27 16:48:00,86.0,37.6,29.41,ENE,68,4.7,4.7,18,0.00,,---,0.00,VWS V14.01,2013-05-27 21:48:00,
2013-05-27 16:53:00,85.8,34.5,29.41,ENE,68,3.1,3.1,16,0.00,,---,0.00,VWS V14.01,2013-05-27 21:53:00,
2013-05-27 16:58:00,86.7,38.2,29.41,ENE,68,2.5,2.9,18,0.00,,---,0.00,VWS V14.01,2013-05-27 21:58:00,
2013-05-27 17:03:00,87.1,38.5,29.41,ENE,68,2.7,3.8,18,0.00,,---,0.00,VWS V14.01,2013-05-27 22:03:00,
2013-05-27 17:08:00,87.1,35.5,29.41,ENE,68,2.5,2.7,16,0.00,,---,0.00,VWS V14.01,2013-05-27 22:08:00,
2013-05-27 17:13:00,86.7,35.2,29.41,ENE,68,2.9,4.0,16,0.00,,---,0.00,VWS V14.01,2013-05-27 22:13:00,
2013-05-27 17:18:00,87.1,35.5,29.41,ENE,68,2.0,2.5,16,0.00,,---,0.00,VWS V14.01,2013-05-27 22:18:00,
2013-05-27 17:23:00,87.1,38.5,29.41,ENE,68,2.0,3.4,18,0.00,,---,0.00,VWS V14.01,2013-05-27 22:23:00,
2013-05-27 17:28:00,86.9,35.3,29.41,ENE,68,2.7,2.7,16,0.00,,---,0.00,VWS V14.01,2013-05-27 22:28:00,
2013-05-27 17:33:00,87.3,35.6,29.41,ENE,68,2.5,2.5,16,0.00,,---,0.00,VWS V14.01,2013-05-27 22:33:00,
2013-05-27 17:38:00,86.9,35.3,29.41,ENE,68,3.8,3.8,16,0.00,,---,0.00,VWS V14.01,2013-05-27 22:38:00,
2013-05-27 17:43:00,86.4,34.9,29.41,ENE,68,0.0,1.6,16,0.00,,---,0.00,VWS V14.01,2013-05-27 22:43:00,
2013-05-27 17:48:00,86.2,34.8,29.41,ENE,68,2.0,2.0,16,0.00,,---,0.00,VWS V14.01,2013-05-27 22:48:00,
2013-05-27 17:53:00,86.0,34.6,29.41,ENE,68,6.7,6.7,16,0.00,,---,0.00,VWS V14.01,2013-05-27 22:53:00,
2013-05-27 17:58:00,85.6,34.3,29.41,ENE,68,3.6,4.0,16,0.00,,---,0.00,VWS V14.01,2013-05-27 22:58:00,
2013-05-27 18:03:00,85.6,34.3,29.41,ENE,68,3.1,3.1,16,0.00,,---,0.00,VWS V14.01,2013-05-27 23:03:00,
2013-05-27 18:08:00,84.2,33.2,29.38,ENE,68,3.6,3.6,16,0.00,,---,0.00,VWS V14.01,2013-05-27 23:08:00,
2013-05-27 18:13:00,83.3,32.5,29.38,ENE,68,4.3,4.3,16,0.00,,---,0.00,VWS V14.01,2013-05-27 23:13:00,
2013-05-27 18:18:00,82.6,31.9,29.38,ENE,68,0.0,0.0,16,0.00,,---,0.00,VWS V14.01,2013-05-27 23:18:00,
2013-05-27 18:23:00,82.8,36.3,29.38,ENE,68,0.0,0.0,19,0.00,,---,0.00,VWS V14.01,2013-05-27 23:23:00,
2013-05-27 18:28:00,82.6,36.2,29.38,ENE,68,0.0,0.0,19,0.00,,---,0.00,VWS V14.01,2013-05-27 23:28:00,
2013-05-27 18:33:00,82.0,35.8,29.38,ENE,68,1.3,1.3,19,0.00,,---,0.00,VWS V14.01,2013-05-27 23:33:00,
2013-05-27 18:37:00,81.7,35.5,29.38,ENE,68,2.0,2.0,19,0.00,,---,0.00,VWS V14.01,2013-05-27 23:37:00,
2013-05-27 18:42:00,81.3,35.2,29.38,ENE,68,2.5,2.5,19,0.00,,---,0.00,VWS V14.01,2013-05-27 23:42:00,
2013-05-27 18:47:00,81.0,34.9,29.38,ENE,68,0.0,1.6,19,0.00,,---,0.00,VWS V14.01,2013-05-27 23:47:00,
2013-05-27 18:52:00,80.8,36.0,29.35,ENE,68,1.3,1.3,20,0.00,,---,0.00,VWS V14.01,2013-05-27 23:52:00,
2013-05-27 18:57:00,80.6,35.9,29.35,ENE,68,0.0,0.0,20,0.00,,---,0.00,VWS V14.01,2013-05-27 23:57:00,
2013-05-27 19:02:00,80.4,35.7,29.35,ENE,68,0.0,0.0,20,0.00,,---,0.00,VWS V14.01,2013-05-28 00:02:00,
2013-05-27 19:07:00,80.1,35.4,29.35,ENE,68,0.0,1.6,20,0.00,,---,0.00,VWS V14.01,2013-05-28 00:07:00,
2013-05-27 19:12:00,79.7,35.1,29.35,ENE,68,0.0,0.0,20,0.00,,---,0.00,VWS V14.01,2013-05-28 00:12:00,
2013-05-27 19:17:00,79.2,34.7,29.35,ENE,68,0.0,0.0,20,0.00,,---,0.00,VWS V14.01,2013-05-28 00:17:00,
2013-05-27 19:22:00,79.0,34.5,29.38,ENE,68,0.0,0.0,20,0.00,,---,0.00,VWS V14.01,2013-05-28 00:22:00,
2013-05-27 19:27:00,78.6,35.5,29.38,ENE,68,0.0,0.0,21,0.00,,---,0.00,VWS V14.01,2013-05-28 00:27:00,
2013-05-27 19:32:00,78.3,35.2,29.38,ENE,68,0.0,0.0,21,0.00,,---,0.00,VWS V14.01,2013-05-28 00:32:00,
2013-05-27 19:37:00,78.1,35.0,29.38,ENE,68,0.0,0.0,21,0.00,,---,0.00,VWS V14.01,2013-05-28 00:37:00,
2013-05-27 19:42:00,77.7,34.7,29.38,ENE,68,0.0,0.0,21,0.00,,---,0.00,VWS V14.01,2013-05-28 00:42:00,
2013-05-27 19:47:00,77.4,34.4,29.38,ENE,68,0.0,0.0,21,0.00,,---,0.00,VWS V14.01,2013-05-28 00:47:00,
2013-05-27 19:52:00,77.2,34.3,29.38,ENE,68,2.0,2.0,21,0.00,,---,0.00,VWS V14.01,2013-05-28 00:52:00,
2013-05-27 19:57:00,76.8,35.1,29.38,ENE,68,0.0,0.0,22,0.00,,---,0.00,VWS V14.01,2013-05-28 00:57:00,
2013-05-27 20:02:00,76.8,35.1,29.38,ENE,68,0.0,0.0,22,0.00,,---,0.00,VWS V14.01,2013-05-28 01:02:00,
2013-05-27 20:07:00,76.3,34.7,29.38,ENE,68,0.0,0.0,22,0.00,,---,0.00,VWS V14.01,2013-05-28 01:07:00,
2013-05-27 20:12:00,76.1,34.5,29.38,ENE,68,0.0,0.0,22,0.00,,---,0.00,VWS V14.01,2013-05-28 01:12:00,
2013-05-27 20:17:00,76.1,35.7,29.38,ENE,68,0.0,0.0,23,0.00,,---,0.00,VWS V14.01,2013-05-28 01:17:00,
2013-05-27 20:22:00,75.7,35.3,29.38,ENE,68,0.0,0.0,23,0.00,,---,0.00,VWS V14.01,2013-05-28 01:22:00,
2013-05-27 20:27:00,75.4,35.0,29.38,ENE,68,0.0,0.0,23,0.00,,---,0.00,VWS V14.01,2013-05-28 01:27:00,
2013-05-27 20:32:00,75.0,35.8,29.38,ENE,68,0.0,0.0,24,0.00,,---,0.00,VWS V14.01,2013-05-28 01:32:00,
2013-05-27 20:37:00,74.7,35.5,29.35,ENE,68,0.0,0.0,24,0.00,,---,0.00,VWS V14.01,2013-05-28 01:37:00,
2013-05-27 20:42:00,74.3,36.2,29.35,ENE,68,0.0,0.0,25,0.00,,---,0.00,VWS V14.01,2013-05-28 01:42:00,
2013-05-27 20:47:00,73.9,35.9,29.35,ENE,68,0.0,0.0,25,0.00,,---,0.00,VWS V14.01,2013-05-28 01:47:00,
2013-05-27 20:52:00,73.4,35.5,29.38,ENE,68,0.0,0.0,25,0.00,,---,0.00,VWS V14.01,2013-05-28 01:52:00,
2013-05-27 20:57:00,73.4,35.5,29.38,ENE,68,0.0,0.0,25,0.00,,---,0.00,VWS V14.01,2013-05-28 01:57:00,
2013-05-27 21:02:00,73.0,36.2,29.38,ENE,68,0.0,0.0,26,0.00,,---,0.00,VWS V14.01,2013-05-28 02:02:00,
2013-05-27 21:07:00,72.9,37.0,29.35,ENE,68,0.0,0.0,27,0.00,,---,0.00,VWS V14.01,2013-05-28 02:07:00,
2013-05-27 21:12:00,72.7,36.8,29.35,ENE,68,0.0,0.0,27,0.00,,---,0.00,VWS V14.01,2013-05-28 02:12:00,
2013-05-27 21:17:00,72.9,37.0,29.35,ENE,68,0.0,0.0,27,0.00,,---,0.00,VWS V14.01,2013-05-28 02:17:00,
2013-05-27 21:22:00,72.7,36.8,29.35,ENE,68,0.0,0.0,27,0.00,,---,0.00,VWS V14.01,2013-05-28 02:22:00,
2013-05-27 21:27:00,72.7,37.7,29.35,ENE,68,0.0,0.0,28,0.00,,---,0.00,VWS V14.01,2013-05-28 02:27:00,
2013-05-27 21:32:00,72.7,37.7,29.35,ENE,68,0.0,0.0,28,0.00,,---,0.00,VWS V14.01,2013-05-28 02:32:00,
2013-05-27 21:37:00,72.9,37.9,29.38,ENE,68,0.0,0.0,28,0.00,,---,0.00,VWS V14.01,2013-05-28 02:37:00,
2013-05-27 21:42:00,72.9,37.9,29.38,ENE,68,0.0,0.0,28,0.00,,---,0.00,VWS V14.01,2013-05-28 02:42:00,
2013-05-27 21:47:00,72.9,37.9,29.38,ENE,68,0.0,0.0,28,0.00,,---,0.00,VWS V14.01,2013-05-28 02:47:00,
2013-05-27 21:52:00,72.7,37.7,29.38,ENE,68,0.0,0.0,28,0.00,,---,0.00,VWS V14.01,2013-05-28 02:52:00,
2013-05-27 21:57:00,72.7,37.7,29.38,ENE,68,0.0,0.0,28,0.00,,---,0.00,VWS V14.01,2013-05-28 02:57:00,
2013-05-27 22:02:00,72.5,37.6,29.38,ENE,68,0.0,0.0,28,0.00,,---,0.00,VWS V14.01,2013-05-28 03:02:00,
2013-05-27 22:07:00,72.5,37.6,29.38,ENE,68,0.0,0.0,28,0.00,,---,0.00,VWS V14.01,2013-05-28 03:07:00,
2013-05-27 22:12:00,72.5,37.6,29.38,ENE,68,0.0,0.0,28,0.00,,---,0.00,VWS V14.01,2013-05-28 03:12:00,
2013-05-27 22:17:00,72.3,38.3,29.38,ENE,68,0.0,0.0,29,0.00,,---,0.00,VWS V14.01,2013-05-28 03:17:00,
2013-05-27 22:22:00,72.1,38.2,29.38,ENE,68,0.0,0.0,29,0.00,,---,0.00,VWS V14.01,2013-05-28 03:22:00,
2013-05-27 22:27:00,72.0,38.0,29.38,ENE,68,0.0,0.0,29,0.00,,---,0.00,VWS V14.01,2013-05-28 03:27:00,
2013-05-27 22:32:00,71.8,37.8,29.38,ENE,68,0.0,0.0,29,0.00,,---,0.00,VWS V14.01,2013-05-28 03:32:00,
2013-05-27 22:37:00,71.8,37.8,29.38,ENE,68,0.0,0.0,29,0.00,,---,0.00,VWS V14.01,2013-05-28 03:37:00,
2013-05-27 22:42:00,71.6,37.7,29.38,ENE,68,0.0,0.0,29,0.00,,---,0.00,VWS V14.01,2013-05-28 03:42:00,
2013-05-27 22:47:00,71.6,38.6,29.38,ENE,68,0.0,0.0,30,0.00,,---,0.00,VWS V14.01,2013-05-28 03:47:00,
2013-05-27 22:52:00,71.4,38.4,29.38,ENE,68,0.0,0.0,30,0.00,,---,0.00,VWS V14.01,2013-05-28 03:52:00,
2013-05-27 22:57:00,71.4,39.2,29.38,ENE,68,0.0,0.0,31,0.00,,---,0.00,VWS V14.01,2013-05-28 03:57:00,
2013-05-27 23:01:00,71.2,39.1,29.38,ENE,68,0.0,0.0,31,0.00,,---,0.00,VWS V14.01,2013-05-28 04:01:00,
2013-05-27 23:06:00,71.2,39.1,29.41,ENE,68,0.0,0.0,31,0.00,,---,0.00,VWS V14.01,2013-05-28 04:06:00,
2013-05-27 23:11:00,71.2,39.9,29.41,ENE,68,0.0,0.0,32,0.00,,---,0.00,VWS V14.01,2013-05-28 04:11:00,
2013-05-27 23:16:00,70.9,39.6,29.41,ENE,68,0.0,0.0,32,0.00,,---,0.00,VWS V14.01,2013-05-28 04:16:00,
2013-05-27 23:21:00,70.9,39.6,29.38,ENE,68,0.0,0.0,32,0.00,,---,0.00,VWS V14.01,2013-05-28 04:21:00,
2013-05-27 23:26:00,70.7,39.4,29.38,ENE,68,0.0,0.0,32,0.00,,---,0.00,VWS V14.01,2013-05-28 04:26:00,
2013-05-27 23:31:00,70.7,39.4,29.38,ENE,68,0.0,0.0,32,0.00,,---,0.00,VWS V14.01,2013-05-28 04:31:00,
2013-05-27 23:36:00,70.7,39.4,29.41,ENE,68,0.0,0.0,32,0.00,,---,0.00,VWS V14.01,2013-05-28 04:36:00,
2013-05-27 23:41:00,70.5,39.3,29.41,ENE,68,0.0,0.0,32,0.00,,---,0.00,VWS V14.01,2013-05-28 04:41:00,
2013-05-27 23:46:00,70.5,39.3,29.41,ENE,68,0.0,0.0,32,0.00,,---,0.00,VWS V14.01,2013-05-28 04:46:00,
2013-05-27 23:51:00,70.3,39.1,29.38,ENE,68,0.0,0.0,32,0.00,,---,0.00,VWS V14.01,2013-05-28 04:51:00,
2013-05-27 23:56:00,70.3,39.1,29.38,ENE,68,0.0,0.0,32,0.00,,---,0.00,VWS V14.01,2013-05-28 04:56:00,